Preview of NWS' New Version of Forecast
This preview is not operational and should not be used for support decisions.

Regional Weather Roundup (RWR)

Issued by National Weather Service (NWS)

                            
000
ASUS42 KTBW 252216
RWRFL 
FLORIDA REGIONAL WEATHER ROUNDUP
NATIONAL WEATHER SERVICE TAMPA BAY RUSKIN FL
600 PM EDT TUE JUN 25 2019

NOTE: "FAIR" INDICATES FEW OR NO CLOUDS BELOW 12,000 FEET WITH NO
SIGNIFICANT WEATHER AND/OR OBSTRUCTIONS TO VISIBILITY.

FLZ001>010-012>015-112-114-115-252300-
PANHANDLE FLORIDA
  
CITY           SKY/WX    TMP DP  RH WIND       PRES   REMARKS
PENSACOLA      FAIR      95  69  42 W10       30.03S HX 100           
PENSACOLA NAS  FAIR      90  77  65 SW9       30.04S HX 103           
MILTON NAS     PTSUNNY   90  74  59 W7        30.04S THUNDER HX  99   
CRESTVIEW      FAIR      95  69  42 W7        30.03F HX 100           
MARY ESTHER    PTSUNNY   88  77  69 SW10      30.02F HX 101           
TRI COUNTY     FAIR      94  74  52 SW5       30.02F HX 104           
PANAMA CITY    FAIR      92  75  57 SW6       30.02F HAZE    HX 103   
APALACHICOLA   FAIR      90  74  59 W9        30.00F HX  99           

STATION/POSITION SKY/WX   TEMP    WIND        PRES    WAVE   SWELL
                          AIR SEA DIR/SP/G            HT/PER HT/PER
                          (F)     (DEG/KT/KT) (MB)    (FT/S) (FT/S)
30.1N   87.6W                                   N/A     2/ 6
29.2N   88.2W                     280/  2/  4 1018.5R   2/ 6   2/ 6
PANAMA CITY BEAC           85 83  250/ 12/ 13 1017.3F
TOWER C          NOT AVBL

$$
FLZ011-016>038-118-127-128-134-139-239-252300-
NORTH FLORIDA
  
CITY           SKY/WX    TMP DP  RH WIND       PRES   REMARKS
MARIANNA       FAIR      94  72  48 NW6       30.00F HX 102           
TALLAHASSEE    CLOUDY    94  73  50 NW7       30.01R THUNDER HX 103   
PERRY          FAIR      83  75  78 W14G22    30.02F                  
LIVE OAK       MOSUNNY   93  72  49 NW7       30.00F HX 100           
CROSS CITY     FAIR      92  77  59 W9        30.01F HX 105           
LAKE CITY      FAIR      91  70  49 NW8       30.01F HX  97           
GAINESVILLE    FAIR      93  72  50 NW7       30.02F HX 101           
PALATKA        FAIR      95  72  46 NW7       29.99F HX 103           
MAYPORT NAS    FAIR      89  76  65 SE10      29.99F HX 100           
JACKSONVILLE   PTSUNNY   95  68  41 NW12      29.98F HX  99           
JAX NAS        PTSUNNY   97  67  37 NW6       29.98F HX 101           
JAX CECIL      MOSUNNY   99  68  36 NW14      29.99F HX 104           
FERNANDINA BEA FAIR      95  69  42 NW10      29.98F HX 101           
ST AUGUSTINE   FAIR      86  76  71 SE13      30.00F HX  96           
PALM COAST     SUNNY     90  73  58 E6        30.00F HX  98           

STATION/POSITION SKY/WX   TEMP    WIND        PRES    WAVE   SWELL
                          AIR SEA DIR/SP/G            HT/PER HT/PER
                          (F)     (DEG/KT/KT) (MB)    (FT/S) (FT/S)
SHELL POINT      NOT AVBL
KEATON BEACH               87     250/ 12/ 13 1016.6F
CEDAR KEY                  88     290/  8/  9 1016.6F
FERNANDINA                 96 85  270/  9/ 11 1016.3F
30.7N   81.3W                 83                N/A     1/10
MAYPORT                    87 81  130/  9/ 10 1016.1F
31.4N   80.9W              88 87  180/  2/  4 1015.3F   1/ 8
ST AUGUSTINE               83 83  130/  7/  7 1016.0F

$$
FLZ040-043>046-052-053-057-058-063-144-252300-
INTERIOR CENTRAL FLORIDA
  
CITY           SKY/WX    TMP DP  RH WIND       PRES   REMARKS
OCALA          FAIR      95  73  48 W8        30.00F HX 104           
LEESBURG       PTSUNNY   94  74  52 SW6       30.00F HX 104           
SANFORD        FAIR      92  78  63 E15       29.98F THUNDER HX 107   
ORLANDO EXEC   FAIR      97  68  38 NW5       29.99F HX 102           
ORLANDO INTL   FAIR      96  70  42 NW3       29.99F HX 102           
KISSIMMEE      FAIR      97  72  44 N3        30.00F HX 105           
WINTER HAVEN   FAIR      98  71  41 NW7       30.01S HX 106           
LAKELAND       MOSUNNY   95  72  46 N8        30.01F HX 103           
SEBRING        MOCLDY    94  74  52 S6        30.01R HX 104           
OKEECHOBEE     FAIR      95  73  49 E3        30.00S HX 105           

$$
FLZ041-047-054-059-064-141-147-252300-
EAST CENTRAL FLORIDA
  
CITY           SKY/WX    TMP DP  RH WIND       PRES   REMARKS
ORMOND BEACH   SUNNY     90  73  58 NE9       30.00F HX  98           
DAYTONA BEACH  FAIR      89  74  60 E9        30.00F HX  98           
DELAND         PTSUNNY   93  77  59 E13       29.99F HX 107           
NEW SMYRNA BEA SUNNY     88  73  62 NE9       30.02F HX  96           
TITUSVILLE     SUNNY     93  72  49 E12       30.02F HX 100           
MELBOURNE      FAIR      88  76  67 E10       30.02R HX  99           
VERO BEACH     FAIR      88  77  69 E13       30.02F HX 100           
FT PIERCE      FAIR      87  76  69 E8        30.02S HX  97           
STUART         MOSUNNY   90  75  62 E12       30.03S HAZE    HX 100   

STATION/POSITION SKY/WX   TEMP    WIND        PRES    WAVE   SWELL
                          AIR SEA DIR/SP/G            HT/PER HT/PER
                          (F)     (DEG/KT/KT) (MB)    (FT/S) (FT/S)
28.5N   80.2W              84 85   60/ 10/ 10 1016.1F   1/ 8   2/ 8
28.9N   78.5W              84 84  300/  6/  6   N/A     2/ 4   2/ 8
TRIDENT PIER               86 77   60/  6/  8 1017.9F
28.4N   80.5W                 80                N/A     1/ 9
27.5N   80.2W                 84                N/A

$$
FLZ050-056-061-142-242-148-248-149-249-151-251-155-255-
160-260-252300-
WEST CENTRAL FLORIDA
  
CITY           SKY/WX    TMP DP  RH WIND       PRES   REMARKS
CRYSTAL RIVER  FAIR     N/A N/A N/A W7        30.02F                  
INVERNESS      FAIR      91  72  52 CALM      30.02S HAZE    HX  98   
BROOKSVILLE    FAIR      92  75  57 NW10      30.03F HX 103           
CLEARWATER AIR FAIR      88  73  62 NW9       30.02F HX  96           
ST PETE CLEARW FAIR      90  76  63 NW10      30.02F HX 101           
TAMPA INTL     FAIR      94  73  50 NW10      30.02F HX 103           
PETER O KNIGHT CLOUDY    95  77  55 NW7       30.01F HX 109           
ST PETERSBURG  FAIR      93  72  50 W5        30.00S HX 101           
SARASOTA       FAIR      92  71  50 NW14      29.99F HX  98           
VENICE         FAIR      91  77  62 NW16      30.01F HX 105           

STATION/POSITION SKY/WX   TEMP    WIND        PRES    WAVE   SWELL
                          AIR SEA DIR/SP/G            HT/PER HT/PER
                          (F)     (DEG/KT/KT) (MB)    (FT/S) (FT/S)
27.3N   84.2W                 89                N/A     1/ 5
CLEARWATER BEACH           86 89  320/  9/ 11 1017.3F
MIDDLE TAMPA BAY           88     310/ 13/ 15 1016.9S
VENICE                     87 86  310/ 17/ 18 1016.3F

$$
FLZ066-069-070-075>078-162-262-165-265-252300-
SOUTHWEST FLORIDA AND KEYS
  
CITY           SKY/WX    TMP DP  RH WIND       PRES   REMARKS
PUNTA GORDA    FAIR      90  69  50 NW10      30.01F                  
FT MYERS       FAIR      93  72  50 NW12      29.98F HX 101           
SOUTHWEST INTL FAIR      97  69  40 NW5       29.99F HX 103           
NAPLES         FAIR      91  76  61 W14       29.99F HX 103           
IMMOKALEE      PTSUNNY   99  73  44 E8        29.97F HX 109           
MARATHON       CLOUDY    89  76  65 SE3       30.01F HX 100           
KEY WEST NAS   PTSUNNY   90  77  65 CALM      30.01F HX 103           
KEY WEST INTL  PTSUNNY   87  76  69 S3        30.01F HX  97           

STATION/POSITION SKY/WX   TEMP    WIND        PRES    WAVE   SWELL
                          AIR SEA DIR/SP/G            HT/PER HT/PER
                          (F)     (DEG/KT/KT) (MB)    (FT/S) (FT/S)
NAPLES                     89 91              1016.3R
DRY TORTUGAS               87      50/  8/ 10 1016.6F
SAND KEY                   86                 1016.4F
SOMBRERO KEY               86     120/  3/  5   N/A
LONG KEY                   86      30/ 12/ 23 1015.8

$$
FLZ067-068-071>074-168-172>174-252300-
SOUTHEAST FLORIDA 
  
CITY           SKY/WX    TMP DP  RH WIND       PRES   REMARKS
W PALM BEACH   FAIR      90  71  53 CALM      30.03F HX  96           
BOCA RATON     SUNNY     90  70  51 NW12      30.03S HX  95           
FT LAUDER-EXEC FAIR      87  68  52 N7        30.03S                  
FT LAUDERDALE  PTSUNNY   89  74  60 SE7       30.02S HX  98           
POMPANO BEACH  FAIR      89  71  55 VRB3      30.03S HX  95           
PEMBROKE PINES FAIR      92  70  48 VRB3      30.04S HX  97           
OPA LOCKA      FAIR      90  72  55 E7        30.03S HX  97           
MIAMI          FAIR      89  72  56 SE6       30.02F HX  96           
WEST KENDALL   FAIR      90  73  57 E10       30.01S HX  98           
HOMESTEAD      NOT AVBL                                               

STATION/POSITION SKY/WX   TEMP    WIND        PRES    WAVE   SWELL
                          AIR SEA DIR/SP/G            HT/PER HT/PER
                          (F)     (DEG/KT/KT) (MB)    (FT/S) (FT/S)
VIRGINIA KEY               88 91  140/  8/ 10 1016.0F
LAKE WORTH                 88 83  260/  3/  6 1018.3R
FOWEY ROCKS                86 85  140/  8/  9 1016.8F
SETTLEMENT POINT           86     320/  4/  5 1017.2R

$$